EW1919 Weather Reports


Display with metric or nautical units.
time (UTC)temp
F
wind
direction
speed
MPH
gust
MPH
rain 1hr
in
rain 24hr
in
rain mn
in
humidity
%
barometer
mb
20260507042920 47 126 0.0 3.0 0.00 0.74 0.00 88 1012.0
20260507042423 47 126 3.0 3.0 0.00 0.77 0.00 88 1011.9
20260507041923 47 155 0.0 2.0 0.00 0.78 0.00 88 1011.9
20260507041420 47 155 0.0 4.0 0.00 0.78 0.00 87 1011.9
20260507040923 47 180 0.0 3.0 0.00 0.79 0.00 87 1011.9
20260507040423 47 180 0.0 0.0 0.00 0.83 0.00 87 1011.8
20260507035920 47 180 0.0 0.0 0.00 0.85 0.00 87 1011.9
20260507035420 47 180 0.0 0.0 0.00 0.86 0.00 87 1011.9
20260507034923 47 180 0.0 0.0 0.00 0.88 0.00 87 1011.7
20260507034420 47 180 0.0 0.0 0.00 0.89 0.00 87 1011.8
20260507033922 47 180 0.0 0.0 0.00 0.91 0.00 87 1011.6
20260507033423 47 180 0.0 0.0 0.00 0.93 0.00 87 1011.6
20260507032923 47 180 0.0 0.0 0.00 0.98 0.00 87 1011.7
20260507032422 48 180 0.0 0.0 0.00 1.02 0.00 87 1011.8
20260507031922 48 180 0.0 3.0 0.00 1.05 0.00 87 1011.8
20260507031422 48 180 2.0 4.0 0.00 1.07 0.00 87 1011.9
20260507030919 48 174 0.0 0.0 0.00 1.08 0.00 87 1011.8
20260507030422 48 174 0.0 0.0 0.00 1.09 0.00 87 1011.8
20260507025922 48 174 0.0 5.0 0.00 1.09 0.00 87 1011.9
20260507025422 48 175 0.0 0.0 0.00 1.09 0.00 87 1011.8
20260507024922 48 174 0.0 0.0 0.00 1.10 0.00 87 1011.9
20260507024422 48 174 0.0 2.0 0.00 1.10 0.00 87 1011.8
20260507023922 48 175 1.0 3.0 0.00 1.11 0.00 87 1011.8
20260507023422 48 162 1.0 5.0 0.00 1.14 0.00 87 1011.9
20260507022919 48 152 0.0 3.0 0.00 1.19 0.00 87 1012.0
20260507022419 48 192 2.0 4.0 0.00 1.25 0.00 87 1012.0
20260507021922 48 182 0.0 3.0 0.00 1.33 0.00 87 1011.9
20260507021422 48 182 0.0 5.0 0.00 1.42 0.00 87 1012.0
20260507020922 48 184 1.0 9.0 0.00 1.51 0.00 87 1012.0
20260507020422 48 196 3.0 7.0 0.00 1.59 0.00 87 1011.9
20260507015922 48 134 0.0 7.0 0.00 1.63 0.00 87 1012.0
20260507015422 48 146 5.0 7.0 0.00 1.69 0.00 87 1012.2
20260507014919 48 150 0.0 7.0 0.00 1.70 0.00 87 1011.9
20260507014422 49 207 2.0 7.0 0.00 1.72 0.00 87 1012.0
20260507013922 49 221 0.0 8.0 0.00 1.75 0.00 87 1012.0
20260507013422 49 180 1.0 5.0 0.00 1.75 0.00 86 1012.0
20260507012919 49 157 3.0 11.0 0.00 1.76 0.00 87 1012.0
20260507012422 49 155 6.0 8.0 0.00 1.76 0.00 86 1011.9
20260507011922 49 153 4.0 11.0 0.00 1.77 0.00 87 1012.0
20260507011422 49 109 4.0 14.0 0.00 1.78 0.00 87 1012.0
20260507010922 49 205 0.0 4.0 0.00 1.79 0.00 87 1012.0
20260507010422 49 119 2.0 12.0 0.00 1.79 0.00 87 1012.0
20260507005922 49 205 3.0 8.0 0.00 1.80 0.00 87 1012.0
20260507005422 49 159 8.0 12.0 0.00 1.81 0.00 87 1012.1
20260507004922 49 163 0.0 10.0 0.00 1.85 0.00 87 1012.0
20260507004422 49 202 3.0 10.0 0.00 1.96 0.00 86 1012.1
20260507003922 50 200 3.0 13.0 0.00 2.04 0.00 86 1011.9
20260507003422 50 155 4.0 12.0 0.00 2.13 0.00 86 1012.0
20260507002922 50 196 0.0 9.0 0.00 2.26 0.00 87 1012.2
20260507002422 50 199 9.0 12.0 0.00 2.40 0.00 87 1012.1
20260507001919 50 225 5.0 12.0 0.00 2.51 0.00 87 1012.2
20260507001422 50 220 11.0 13.0 0.00 2.57 0.00 87 1012.2
20260507000922 50 217 3.0 11.0 0.00 2.70 0.00 87 1012.3
20260507000422 50 211 3.0 8.0 0.00 2.76 0.00 87 1012.3
20260506235919 50 207 4.0 9.0 0.00 2.77 0.00 87 1012.3
20260506235422 50 227 6.0 9.0 0.00 2.78 0.00 87 1012.3
20260506234922 50 214 4.0 8.0 0.00 2.83 0.00 87 1012.3
20260506234422 50 191 4.0 10.0 0.00 2.85 0.00 87 1012.3
20260506233922 50 198 8.0 8.0 0.00 2.87 0.00 87 1012.4
20260506233419 50 206 1.0 11.0 0.00 2.88 0.00 87 1012.4
20260506232922 50 120 2.0 10.0 0.00 2.88 0.00 87 1012.3
20260506232422 50 189 1.0 10.0 0.00 2.89 0.00 87 1012.5
20260506231919 50 166 4.0 10.0 0.00 2.89 0.00 87 1012.5
20260506231422 50 109 4.0 14.0 0.00 2.89 0.00 87 1012.6
20260506230922 50 142 0.0 10.0 0.00 2.89 0.00 87 1012.4
20260506230422 50 176 5.0 9.0 0.00 2.89 0.00 87 1012.4
20260506225922 50 199 0.0 6.0 0.00 2.89 0.00 87 1012.4
20260506225419 50 188 7.0 9.0 0.00 2.90 0.00 87 1012.4
20260506224919 51 181 6.0 11.0 0.00 2.90 0.00 87 1012.4
20260506224422 51 171 4.0 6.0 0.00 2.90 0.00 87 1012.4
20260506223922 51 201 3.0 8.0 0.00 2.92 0.00 87 1012.6
20260506223419 51 208 3.0 11.0 0.00 2.95 0.00 87 1012.6
20260506222922 51 133 2.0 8.0 0.00 2.99 0.00 87 1012.6
20260506222422 51 205 4.0 12.0 0.00 3.01 0.00 87 1012.7
20260506221922 51 185 3.0 8.0 0.00 3.05 0.00 87 1012.7
20260506221422 51 197 5.0 12.0 0.00 3.07 0.00 87 1012.6
20260506220922 51 170 12.0 12.0 0.00 3.09 0.00 87 1012.5
20260506220422 51 180 4.0 11.0 0.00 3.14 0.00 87 1012.5
20260506215919 51 164 9.0 16.0 0.00 3.14 0.00 88 1012.6
20260506215422 51 168 6.0 10.0 0.00 3.18 0.00 88 1012.5
20260506214922 51 173 2.0 15.0 0.00 3.18 0.00 88 1012.5
20260506214419 51 192 11.0 12.0 0.00 3.20 0.00 88 1012.6
20260506213922 51 182 2.0 9.0 0.00 3.24 0.00 88 1012.4
20260506213422 51 179 4.0 10.0 0.00 3.24 0.00 89 1012.4
20260506212919 51 243 5.0 12.0 0.00 3.25 0.00 89 1012.4
20260506212422 51 212 7.0 11.0 0.00 3.29 0.00 89 1012.5
20260506211919 51 196 7.0 11.0 0.00 3.41 0.00 90 1012.6
20260506211422 51 213 4.0 10.0 0.00 3.52 0.00 90 1012.5
20260506210922 51 200 6.0 11.0 0.00 3.61 0.00 90 1012.6
20260506210422 51 176 8.0 12.0 0.00 3.69 0.00 90 1012.6
20260506205922 51 140 1.0 6.0 0.00 3.75 0.00 90 1012.6
20260506205422 51 208 4.0 8.0 0.00 3.88 0.00 91 1012.4
20260506204922 51 169 7.0 10.0 0.00 3.98 0.00 91 1012.4
20260506204422 51 201 4.0 8.0 0.00 3.99 0.00 91 1012.4
20260506203922 51 211 3.0 4.0 0.00 4.00 0.00 91 1012.2
20260506203422 51 200 1.0 8.0 0.00 4.00 0.00 91 1012.4
20260506202922 51 203 4.0 7.0 0.00 4.00 0.00 91 1012.3
20260506202419 51 161 6.0 9.0 0.00 4.00 0.00 91 1012.2
20260506201922 51 197 5.0 8.0 0.00 4.00 0.00 91 1012.1
20260506201422 51 148 2.0 7.0 0.00 4.00 0.00 90 1012.2
20260506200922 51 192 6.0 10.0 0.00 4.00 0.00 90 1012.1
20260506200422 51 211 4.0 6.0 0.00 4.00 0.00 90 1012.0
20260506195922 51 177 4.0 7.0 0.00 4.00 0.00 89 1012.0
20260506195422 51 176 2.0 6.0 0.00 4.00 0.00 89 1012.0
20260506194922 51 211 6.0 7.0 0.00 4.00 0.00 88 1011.9
20260506194422 51 193 4.0 9.0 0.00 4.00 0.00 88 1011.9
20260506193923 51 184 4.0 6.0 0.00 4.00 0.00 87 1011.8
20260506193423 51 215 4.0 8.0 0.00 4.00 0.00 87 1011.5
20260506192922 51 196 5.0 9.0 0.00 4.00 0.00 86 1011.5
20260506192422 52 211 5.0 7.0 0.00 4.00 0.00 85 1011.4
20260506191923 52 178 3.0 7.0 0.00 4.00 0.00 84 1011.4
20260506191422 52 177 5.0 9.0 0.00 4.00 0.00 84 1011.4
20260506190922 52 202 6.0 9.0 0.00 4.00 0.00 83 1011.3
20260506190422 52 196 3.0 10.0 0.00 4.00 0.00 83 1011.1
20260506185922 52 171 7.0 11.0 0.00 4.00 0.00 82 1011.2
20260506185419 52 198 8.0 10.0 0.00 4.00 0.00 82 1011.1
20260506184922 52 206 3.0 10.0 0.00 4.00 0.00 81 1010.9
20260506184422 52 205 4.0 12.0 0.00 4.00 0.00 80 1010.9
20260506183922 53 204 8.0 10.0 0.00 4.00 0.00 80 1010.8
20260506183422 53 175 6.0 9.0 0.00 4.00 0.00 78 1010.8
20260506182922 53 196 2.0 11.0 0.00 4.00 0.00 78 1010.8
20260506182422 53 192 5.0 9.0 0.00 4.00 0.00 76 1010.8
20260506181922 53 183 2.0 9.0 0.00 4.00 0.00 76 1010.8
20260506181422 53 220 5.0 9.0 0.00 4.00 0.00 75 1010.6
20260506180923 54 176 5.0 12.0 0.00 4.00 0.00 75 1010.7
20260506180422 54 198 4.0 9.0 0.00 4.01 0.00 75 1010.6
20260506175922 54 209 4.0 8.0 0.00 4.01 0.00 75 1010.7
20260506175422 54 202 9.0 10.0 0.00 4.01 0.00 74 1010.5
20260506174922 54 186 4.0 10.0 0.00 4.01 0.00 73 1010.7
20260506174422 55 210 4.0 14.0 0.00 4.01 0.00 72 1010.5
20260506173918 55 219 7.0 17.0 0.00 4.02 0.00 73 1010.5
20260506173421 55 221 8.0 13.0 0.00 4.02 0.00 73 1010.5
20260506172921 55 189 8.0 13.0 0.00 4.02 0.00 73 1010.5
20260506172418 55 215 8.0 12.0 0.00 4.02 0.00 72 1010.5
20260506171922 55 143 2.0 12.0 0.00 4.02 0.00 71 1010.6
20260506171421 55 198 4.0 11.0 0.00 4.02 0.00 70 1010.5
20260506170921 55 153 7.0 9.0 0.00 4.02 0.00 68 1010.4
20260506170421 56 105 3.0 13.0 0.00 4.02 0.00 69 1010.3
20260506165921 56 182 8.0 11.0 0.00 4.02 0.00 68 1010.3
20260506165421 56 102 8.0 13.0 0.00 4.02 0.00 68 1010.3
20260506164921 57 201 8.0 13.0 0.00 4.02 0.00 69 1010.3
20260506164421 57 191 10.0 16.0 0.00 4.02 0.00 66 1010.1
20260506163921 58 190 5.0 12.0 0.00 4.02 0.00 70 1010.2
20260506163421 58 194 5.0 13.0 0.00 4.02 0.00 69 1010.2
20260506162921 58 196 5.0 10.0 0.00 4.02 0.00 69 1010.2
20260506162421 58 167 10.0 16.0 0.00 4.02 0.00 67 1010.2
20260506161921 58 198 4.0 18.0 0.00 4.02 0.00 68 1010.3
20260506161421 58 211 16.0 21.0 0.00 4.02 0.00 67 1010.2
20260506160921 58 213 9.0 18.0 0.00 4.02 0.00 69 1010.4
20260506160418 58 175 10.0 17.0 0.00 4.02 0.00 73 1010.2
20260506155921 58 177 4.0 15.0 0.00 4.02 0.00 72 1010.1
20260506155418 58 212 9.0 17.0 0.00 4.02 0.00 75 1010.3
20260506154921 59 180 9.0 16.0 0.00 4.02 0.00 75 1010.0
20260506154421 59 190 9.0 18.0 0.00 4.02 0.00 76 1010.1
20260506153921 58 169 0.0 12.0 0.00 4.02 0.00 76 1010.0
20260506153421 58 163 5.0 15.0 0.00 4.02 0.00 77 1009.9
20260506152921 59 120 2.0 15.0 0.00 4.02 0.00 76 1009.8
20260506152421 59 171 5.0 13.0 0.00 4.02 0.00 74 1009.9
20260506151921 59 155 7.0 14.0 0.00 4.02 0.00 74 1009.7
20260506151422 59 207 3.0 18.0 0.00 4.02 0.00 75 1009.6
20260506150921 58 148 6.0 11.0 0.00 4.02 0.00 77 1009.7
20260506150421 58 213 4.0 15.0 0.00 4.02 0.00 77 1009.8
20260506145921 58 297 3.0 12.0 0.00 4.02 0.00 79 1009.9
20260506145421 58 186 10.0 12.0 0.00 4.02 0.00 78 1009.9
20260506144921 58 202 3.0 16.0 0.00 4.02 0.00 76 1009.9
20260506144421 59 205 8.0 17.0 0.00 4.02 0.00 78 1009.6
20260506143921 58 220 7.0 24.0 0.00 4.02 0.00 76 1009.9
20260506143421 59 194 16.0 23.0 0.00 4.02 0.00 79 1009.7
20260506142921 59 199 16.0 17.0 0.00 4.02 0.00 79 1010.0
20260506142421 59 219 8.0 17.0 0.00 4.02 0.00 79 1009.7
20260506141921 59 174 7.0 17.0 0.00 4.02 0.00 80 1009.7
20260506141418 59 200 7.0 17.0 0.00 4.02 0.00 83 1009.6
20260506140921 59 192 6.0 16.0 0.00 4.02 0.00 82 1009.5
20260506140421 59 195 7.0 12.0 0.00 4.02 0.00 82 1009.8
20260506135921 58 172 9.0 16.0 0.00 4.02 0.00 81 1009.8
20260506135418 58 183 11.0 17.0 0.00 4.02 0.00 79 1009.8
20260506134922 58 181 15.0 20.0 0.00 4.02 0.00 79 1009.8
20260506134421 57 170 12.0 20.0 0.02 4.02 0.00 81 1009.7
20260506133918 57 226 7.0 23.0 0.03 4.02 0.00 83 1009.7
20260506133421 57 167 10.0 19.0 0.03 4.02 0.00 86 1009.8
20260506132921 57 188 4.0 13.0 0.03 4.02 0.00 87 1009.7
20260506132421 57 213 3.0 15.0 0.03 4.02 0.00 88 1010.0
20260506131921 57 214 10.0 17.0 0.03 4.02 0.00 89 1009.9
20260506131421 56 207 15.0 21.0 0.03 4.02 0.00 90 1009.9
20260506130918 56 209 7.0 14.0 0.03 4.02 0.00 91 1010.0
20260506130421 55 161 12.0 17.0 0.03 4.02 0.00 90 1010.2
20260506125921 56 200 6.0 15.0 0.03 4.02 0.00 90 1010.3
20260506125421 56 250 7.0 14.0 0.03 4.01 0.00 90 1010.2
20260506124921 56 195 10.0 17.0 0.03 4.01 0.00 91 1010.4
20260506124421 57 213 10.0 17.0 0.01 3.99 0.00 91 1010.1
20260506123921 57 228 14.0 18.0 0.00 3.98 0.00 91 1009.7
20260506123421 57 132 9.0 15.0 0.00 3.99 0.00 91 1009.6
20260506122921 57 153 5.0 12.0 0.00 3.99 0.00 91 1009.4
20260506122421 57 188 5.0 14.0 0.00 4.01 0.00 91 1009.5
20260506121921 57 103 7.0 23.0 0.00 4.02 0.00 91 1009.6
20260506121418 57 178 4.0 13.0 0.00 4.02 0.00 91 1009.5
20260506120921 57 246 4.0 20.0 0.00 4.03 0.00 91 1009.7
20260506120421 56 201 7.0 15.0 0.00 4.04 0.00 91 1009.6
20260506115921 56 153 4.0 18.0 0.00 4.05 0.00 91 1009.5
20260506115418 56 184 9.0 23.0 0.00 4.06 0.00 90 1009.6
20260506114918 56 142 12.0 14.0 0.00 4.07 0.00 89 1009.6
20260506114421 55 202 10.0 21.0 0.00 4.08 0.00 88 1009.6
20260506113921 55 151 9.0 19.0 0.00 4.10 0.00 87 1009.7
20260506113421 55 203 11.0 25.0 0.00 4.11 0.00 87 1009.8
20260506112921 55 229 3.0 15.0 0.00 4.13 0.00 86 1009.5
20260506112421 55 228 7.0 18.0 0.00 4.14 0.00 86 1009.6
20260506111918 55 179 7.0 21.0 0.00 4.17 0.00 86 1009.7
20260506111421 55 151 14.0 16.0 0.00 4.18 0.00 86 1009.6
20260506110918 55 201 3.0 11.0 0.00 4.22 0.00 86 1009.5
20260506110421 55 213 5.0 14.0 0.00 4.23 0.00 86 1009.8
20260506105921 55 149 1.0 11.0 0.00 4.25 0.00 86 1009.6
20260506105421 54 219 5.0 28.0 0.00 4.27 0.00 86 1009.6
20260506104921 54 232 10.0 17.0 0.00 4.29 0.00 86 1009.8
20260506104421 54 134 8.0 14.0 0.00 4.29 0.00 86 1009.8
20260506103921 54 188 8.0 13.0 0.00 4.30 0.00 85 1010.0
20260506103421 54 159 7.0 25.0 0.00 4.33 0.00 86 1010.1
20260506102921 54 227 9.0 22.0 0.00 4.33 0.00 86 1009.9
20260506102421 54 224 4.0 15.0 0.00 4.34 0.00 86 1010.0
20260506101921 53 212 2.0 12.0 0.00 4.35 0.00 86 1010.0
20260506101421 53 132 9.0 18.0 0.00 4.35 0.00 86 1010.1
20260506100921 53 172 5.0 15.0 0.00 4.35 0.00 86 1009.9
20260506100418 53 155 8.0 16.0 0.00 4.35 0.00 86 1010.0
20260506095921 53 205 5.0 17.0 0.00 4.36 0.00 86 1010.1
20260506095421 53 153 4.0 17.0 0.00 4.36 0.00 86 1010.1
20260506094921 53 227 3.0 16.0 0.00 4.36 0.00 85 1010.0
20260506094421 54 153 3.0 16.0 0.00 4.36 0.00 85 1010.0
20260506093921 53 170 11.0 20.0 0.00 4.37 0.00 85 1010.0
20260506093421 53 132 11.0 16.0 0.00 4.37 0.00 85 1009.9
20260506092921 53 202 15.0 21.0 0.00 4.40 0.00 85 1009.8
20260506092421 54 220 5.0 18.0 0.00 4.45 0.00 85 1009.8
20260506091921 54 134 5.0 17.0 0.00 4.48 0.00 85 1009.7
20260506091421 54 200 9.0 15.0 0.00 4.49 0.00 85 1009.7
20260506090921 53 173 8.0 19.0 0.00 4.50 0.00 85 1009.9
20260506090421 53 190 2.0 18.0 0.01 4.51 0.00 85 1009.8
20260506085921 53 217 5.0 14.0 0.03 4.51 0.00 85 1009.8
20260506085421 53 226 3.0 14.0 0.03 4.51 0.00 85 1009.9
20260506084918 53 186 10.0 19.0 0.04 4.51 0.00 85 1009.9
20260506084421 53 192 10.0 17.0 0.06 4.51 0.00 86 1009.9
20260506083921 53 184 16.0 19.0 0.07 4.51 0.00 85 1009.9
20260506083421 53 172 9.0 25.0 0.07 4.51 0.00 85 1010.0
20260506082921 53 91 8.0 23.0 0.07 4.52 0.00 85 1009.6
20260506082421 54 154 10.0 18.0 0.08 4.61 0.00 86 1009.8
20260506081921 54 201 10.0 18.0 0.10 4.68 0.00 86 1009.8
20260506081421 53 171 8.0 20.0 0.11 4.70 0.00 85 1009.8
20260506080921 53 175 9.0 18.0 0.14 4.72 0.00 85 1009.7
20260506080418 53 191 8.0 20.0 0.16 4.72 0.00 85 1009.7
20260506073420 53 224 9.0 12.0 0.24 4.66 0.00 86 1009.6
20260506072920 53 205 8.0 11.0 0.25 4.66 0.00 86 1009.6
20260506072420 53 169 2.0 10.0 0.25 4.65 0.00 86 1009.6
20260506071920 53 185 5.0 10.0 0.25 4.63 0.00 86 1009.6
20260506071420 53 196 4.0 12.0 0.23 4.62 0.00 86 1009.7
20260506070917 53 207 6.0 13.0 0.22 4.61 0.00 86 1009.7
20260506070420 53 211 2.0 10.0 0.22 4.61 0.00 86 1009.7
20260506062420 53 152 11.0 16.0 0.24 4.59 0.00 86 1009.7
20260506061920 53 186 3.0 13.0 0.25 4.58 0.00 86 1009.9
20260506061420 52 107 3.0 6.0 0.25 4.58 0.00 86 1009.8
20260506060920 52 159 2.0 12.0 0.24 4.57 0.00 86 1010.0
20260506060417 53 132 4.0 12.0 0.22 4.59 0.00 86 1010.1
20260506050920 51 188 1.0 5.0 0.14 4.62 0.00 86 1010.2
20260506050417 51 193 5.0 5.0 0.15 4.61 0.00 86 1010.2
20260506044920 50 196 0.0 3.0 0.16 4.59 0.00 87 1010.4
20260506044420 50 196 0.0 5.0 0.18 4.59 0.00 87 1010.7
20260506043920 50 195 2.0 6.0 0.19 4.59 0.00 86 1010.7
20260506043417 50 195 1.0 4.0 0.22 4.60 0.00 86 1010.7